Hourly Weather Roundup
Issued by NWS Central Illinois

Home | Current Version | Previous Version | Text Only | Print | Product List | Glossary On
Versions: 1 2 3 4 5 6 7 8 9 10 11 12 13 14 15 16 17 18 19 20 21 22 23 24 25 26 27 28 29 30 31 32 33 34 35 36 37 38 39 40 41 42 43 44 45 46 47 48 49 50
000
NZUS43 KILX 210310
HWRILX

AREA WEATHER ROUNDUP
NATIONAL WEATHER SERVICE, LINCOLN IL
1000 PM CDT MON OCT 20 2014


CITY           SKY/WX    TMP DP  RH WIND       PRES   REMARKS
BLOOMINGTON    MOCLDY    55  44  66 N9        30.01R
CHAMPAIGN      MOCLDY    50  44  80 N6        29.98R
DECATUR        CLEAR     53  44  71 NW5       29.99R
FLORA          CLEAR     55  44  66 W5        30.01R
GALESBURG      CLEAR     48  42  80 CALM      30.00S
JACKSONVILLE   CLEAR     54  45  71 W3        30.01R
LACON          CLEAR     50  41  72 CALM      30.00R
LAWRENCEVILLE  CLEAR     55  45  68 W6        29.98R
LITCHFIELD     CLEAR     50  43  77 CALM      30.01S
$$


CITY           SKY/WX    TMP DP  RH WIND       PRES   REMARKS
LINCOLN        CLEAR     52  45  76 CALM      29.98R
MACOMB         CLEAR     45  42  87 W3        30.03R
MATTOON        CLEAR     52  43  71 W6        29.98R
MT CARMEL AP   CLEAR     54  45  71 NW3       29.99R
OLNEY-NOBLE AP CLEAR     52  45  76 CALM      30.00R
PARIS          CLEAR     49  45  85 NW3       29.99R
PEORIA         CLEAR     50  44  80 CALM      30.00R
PONTIAC        CLEAR     52  45  76 N5        30.00R
RANTOUL        MOCLDY    56  45  68 NE8       29.99R
ROBINSON       CLEAR     56  46  70 NW7       29.99R
SPRINGFIELD    CLEAR     50  43  77 SW6       30.00R
TAYLORVILLE    CLEAR     48  43  81 W5        30.00S
$$

...REGIONAL REPORTS...


CITY           SKY/WX    TMP DP  RH WIND       PRES   REMARKS
CHICAGO O`HARE MOCLDY    53  41  63 N8        29.99R
KANKAKEE       CLOUDY    53  48  85 N3        30.00R
MOLINE         CLEAR     48  42  80 CALM      30.00R
MOUNT VERNON   CLEAR     48  43  81 CALM      30.02R
PITTSFIELD     CLEAR     52  45  77 W3        30.03S
QUINCY         CLEAR     54  43  66 W5        30.02R
ROCKFORD       MOCLDY    51  41  68 NE6       30.04R
$$


CITY           SKY/WX    TMP DP  RH WIND       PRES   REMARKS
BURLINGTON     CLEAR     51  44  77 NW5       30.01R
CEDAR RAPIDS   CLEAR     47  41  80 NW5       30.01R
DES MOINES     CLEAR     56  40  55 CALM      30.04R
KIRKSVILLE     CLEAR     45  43  93 W3        30.05R
OTTUMWA        CLEAR     48  41  76 W5        30.03R
ST LOUIS       CLEAR     57  44  62 CALM      30.03R
$$


CITY           SKY/WX    TMP DP  RH WIND       PRES   REMARKS
TERRE HAUTE    PTCLDY    55  44  66 NW3       29.97R
EVANSVILLE     CLEAR     60  44  55 NW5       29.99R
INDIANAPOLIS   PTCLDY    56  46  69 N13       29.95R
LAFAYETTE      PTCLDY    50  46  86 N5        29.97R
MADISON        CLOUDY    52  40  63 N8        30.03R
MILWAUKEE      MOCLDY    51  42  71 N7        30.01R
$$




USA.gov is the U.S. government's official web portal to all federal, state and local government web resources and services.